EW0626 Weather Reports


time (UTC)temp
F
wind
direction
speed
knots
gust
knots
rain 1hr
in
rain 24hr
in
rain mn
in
humidity
%
barometer
mb
20240723061539 70 83 0.0 0.0 0.00 0.00 0.00 97 1000.0
20240723061039 70 83 0.0 0.0 0.00 0.00 0.00 97 1000.0
20240723060538 70 83 0.0 0.0 0.00 0.00 0.00 97 1000.0
20240723060040 70 83 0.0 0.0 0.00 0.00 0.00 97 1000.0
20240723055538 70 83 0.0 0.0 0.00 0.00 0.00 97 1000.2
20240723055035 70 83 0.0 0.0 0.00 0.00 0.00 97 1000.2
20240723054533 70 83 0.0 0.0 0.00 0.00 0.00 97 1000.2
20240723054303 70 83 0.0 0.0 0.00 0.00 0.00 97 1000.2
20240723053534 70 83 0.0 0.0 0.00 0.00 0.00 97 1000.2
20240723053304 70 83 0.0 0.0 0.00 0.00 0.00 97 1000.2
20240723052530 70 83 0.0 0.0 0.00 0.00 0.00 97 1000.3
20240723052031 70 83 0.0 0.9 0.00 0.00 0.00 97 1000.3
20240723051531 70 83 0.0 0.9 0.00 0.00 0.00 97 1000.2
20240723051028 70 83 0.0 0.9 0.00 0.00 0.00 97 1000.3
20240723050530 70 83 0.0 0.0 0.00 0.00 0.00 97 1000.2
20240723050023 70 83 0.0 0.0 0.00 0.00 0.00 96 1000.1
20240723045517 70 83 0.0 0.0 0.00 0.00 0.00 96 1000.2
20240723045244 70 83 0.0 0.0 0.00 0.00 0.00 97 1000.1
20240723044506 70 83 0.0 0.0 0.00 0.00 0.00 96 1000.2
20240723044000 70 83 0.0 0.0 0.00 0.00 0.00 96 1000.2
20240723043454 70 83 0.0 0.0 0.00 0.00 0.00 96 1000.0
20240723042948 70 83 0.0 0.0 0.00 0.00 0.00 96 1000.1
20240723042442 70 83 0.0 0.0 0.00 0.00 0.00 96 1000.1
20240723041936 70 83 0.0 0.0 0.00 0.00 0.00 96 1000.1
20240723041428 71 83 0.0 0.0 0.00 0.00 0.00 96 1000.1
20240723040924 70 83 0.0 0.0 0.00 0.00 0.00 96 1000.2
20240723040419 70 83 0.0 0.0 0.00 0.00 0.00 96 1000.1
20240723035912 71 83 0.0 0.0 0.00 0.00 0.00 95 1000.1
20240723035405 71 83 0.0 0.9 0.00 0.00 0.00 95 999.9
20240723035130 71 83 0.9 1.7 0.00 0.00 0.00 96 999.9
20240723034354 71 83 0.0 1.7 0.00 0.00 0.00 96 1000.0
20240723033846 71 50 0.0 0.0 0.00 0.00 0.00 95 1000.0
20240723033342 71 50 0.0 0.0 0.00 0.00 0.00 95 1000.0
20240723032836 71 50 0.0 0.0 0.00 0.00 0.00 95 999.9
20240723032330 71 50 0.0 0.0 0.00 0.00 0.00 95 999.9
20240723031823 71 50 0.0 0.0 0.00 0.00 0.00 95 999.9
20240723031318 71 50 0.0 0.0 0.00 0.00 0.00 94 999.9
20240723030810 71 50 0.0 0.0 0.00 0.00 0.00 94 999.9
20240723030306 72 50 0.0 0.0 0.00 0.00 0.00 94 1000.0
20240723025800 72 50 0.0 0.0 0.00 0.00 0.00 93 999.8
20240723025254 72 50 0.0 0.0 0.00 0.00 0.00 93 999.7
20240723024746 72 50 0.0 0.0 0.00 0.00 0.00 93 999.7
20240723024242 73 50 0.0 0.9 0.00 0.00 0.00 93 999.7
20240723024006 73 50 0.0 0.9 0.00 0.00 0.00 93 999.6
20240723023230 73 50 0.0 0.0 0.00 0.00 0.00 92 999.5
20240723022724 73 50 0.0 0.0 0.00 0.00 0.00 92 999.7
20240723022218 73 50 0.0 0.0 0.00 0.00 0.00 91 999.7
20240723021944 73 50 0.0 0.0 0.00 0.00 0.00 91 999.6
20240723021206 74 50 0.0 0.0 0.00 0.00 0.00 91 999.6
20240723020700 74 50 0.0 0.0 0.00 0.00 0.00 91 999.5
20240723020153 74 50 0.0 0.0 0.00 0.00 0.00 90 999.4
20240723015648 74 50 0.0 0.0 0.00 0.00 0.00 89 999.3
20240723015413 75 50 0.0 0.9 0.00 0.00 0.00 89 999.3
20240723014634 75 50 0.0 0.9 0.00 0.00 0.00 89 999.2
20240723014130 75 50 0.0 0.0 0.00 0.00 0.00 87 999.2
20240723013624 76 50 0.0 0.0 0.00 0.00 0.00 87 999.2
20240723013349 76 50 0.0 0.9 0.00 0.00 0.00 86 999.1
20240723012611 77 50 0.0 0.9 0.00 0.00 0.00 86 999.1
20240723012106 77 50 0.0 0.0 0.00 0.00 0.00 83 999.1
20240723011831 78 50 0.0 0.0 0.00 0.00 0.00 83 999.0
20240723011325 79 50 0.0 0.0 0.00 0.00 0.00 82 999.0
20240723010548 80 17 0.0 0.0 0.00 0.00 0.00 81 998.9
20240723010044 80 18 0.0 0.0 0.00 0.00 0.00 79 998.8
20240723005822 82 18 0.0 0.0 0.00 0.00 0.00 77 998.8
20240723005545 81 18 0.0 0.0 0.00 0.00 0.00 78 998.7
20240723004541 82 18 0.0 0.0 0.00 0.00 0.00 75 998.7
20240723004312 84 18 0.0 0.0 0.00 0.00 0.00 74 998.8
20240723003539 84 18 0.0 0.0 0.00 0.00 0.00 76 998.7
20240723003038 84 18 0.0 0.0 0.00 0.00 0.00 76 998.6
20240723002534 84 18 0.0 0.9 0.00 0.00 0.00 75 998.6
20240723002035 84 17 0.0 0.9 0.00 0.00 0.00 72 998.5
20240723001535 85 10 0.0 0.0 0.00 0.00 0.00 71 998.5
20240723001305 85 354 0.0 0.0 0.00 0.00 0.00 69 998.5
20240723000807 85 354 0.0 0.9 0.00 0.00 0.00 68 998.4
20240723000038 86 354 0.0 0.9 0.00 0.00 0.00 65 998.4
20240722235533 87 354 0.0 0.0 0.00 0.00 0.00 67 998.4
20240722235033 86 354 0.0 0.0 0.00 0.00 0.00 66 998.3
20240722234532 85 354 0.0 0.9 0.00 0.00 0.00 71 998.3
20240722234034 84 354 0.0 0.9 0.00 0.00 0.00 72 998.2
20240722233528 83 339 0.9 2.6 0.00 0.00 0.00 71 998.1
20240722233022 83 339 0.9 2.6 0.00 0.00 0.00 70 998.0
20240722232523 84 347 0.9 2.6 0.00 0.00 0.00 69 998.1
20240722232022 84 359 0.9 2.6 0.00 0.00 0.00 68 997.9
20240722231755 84 1 0.9 2.6 0.00 0.00 0.00 72 997.8
20240722231021 83 337 1.7 2.6 0.00 0.00 0.00 70 998.0
20240722230521 83 337 1.7 3.5 0.00 0.00 0.00 70 998.0
20240722230019 83 340 1.7 4.3 0.00 0.00 0.00 70 998.1
20240722225518 83 338 1.7 4.3 0.00 0.00 0.00 72 998.1
20240722225253 83 357 1.7 4.3 0.00 0.00 0.00 70 998.1
20240722224750 83 354 2.6 6.1 0.00 0.00 0.00 70 998.1
20240722224249 83 328 2.6 6.1 0.00 0.00 0.00 71 998.2
20240722223515 83 329 2.6 5.2 0.00 0.00 0.00 70 998.2
20240722223017 83 324 3.5 6.1 0.00 0.00 0.00 70 998.2
20240722222522 83 10 2.6 4.3 0.00 0.00 0.00 70 998.4
20240722222513 84 356 3.5 6.1 0.00 0.00 0.00 68 998.3
20240722222012 84 350 2.6 5.2 0.00 0.00 0.00 69 998.3
20240722221013 83 348 2.6 5.2 0.00 0.00 0.00 70 998.3
20240722220512 83 4 2.6 6.1 0.00 0.00 0.00 71 998.2
20240722220244 83 0 2.6 6.1 0.00 0.00 0.00 70 998.3
20240722215511 83 321 2.6 6.1 0.00 0.00 0.00 71 998.3
20240722215013 83 1 3.5 8.7 0.00 0.00 0.00 72 998.5
20240722214514 83 18 2.6 8.7 0.00 0.00 0.00 72 998.2
20240722214014 83 355 2.6 4.3 0.00 0.00 0.00 68 998.4
20240722213511 83 325 2.6 6.1 0.00 0.00 0.00 70 998.3
20240722213012 84 340 2.6 7.0 0.00 0.00 0.00 70 998.4
20240722212513 84 320 2.6 7.0 0.00 0.00 0.00 71 998.3
20240722212012 84 339 3.5 7.0 0.00 0.00 0.00 69 998.4
20240722211512 84 335 3.5 7.0 0.00 0.00 0.00 71 998.5
20240722211011 84 4 4.3 7.0 0.00 0.00 0.00 68 998.4
20240722210511 84 341 4.3 7.0 0.00 0.00 0.00 69 998.5
20240722210012 84 293 3.5 7.0 0.00 0.00 0.00 68 998.5
20240722205513 84 327 4.3 8.7 0.00 0.00 0.00 69 998.5
20240722205009 84 354 4.3 8.7 0.00 0.00 0.00 68 998.5
20240722205002 84 315 3.5 7.8 0.00 0.00 0.00 69 998.7
20240722204635 85 310 2.6 7.8 0.00 0.00 0.00 68 998.9
20240722203456 84 1 3.5 7.0 0.00 0.00 0.00 67 998.9
20240722202956 85 358 2.6 7.0 0.00 0.00 0.00 68 999.0
20240722202725 85 6 2.6 6.1 0.00 0.00 0.00 69 999.0
20240722202230 85 77 3.5 7.0 0.00 0.00 0.00 68 999.0
20240722201458 84 316 3.5 7.0 0.00 0.00 0.00 71 999.0
20240722201451 85 352 2.6 7.0 0.00 0.00 0.00 67 999.1
20240722200453 84 349 4.3 7.0 0.00 0.00 0.00 68 999.1
20240722195949 84 326 3.5 7.0 0.00 0.00 0.00 70 999.1
20240722195448 84 283 2.6 7.0 0.00 0.00 0.00 72 999.3
20240722195222 84 343 3.5 11.3 0.00 0.00 0.00 69 999.3
20240722194718 84 25 3.5 11.3 0.00 0.00 0.00 66 999.4
20240722193948 84 310 2.6 7.0 0.00 0.00 0.00 72 999.4
20240722193448 83 355 4.3 7.0 0.00 0.00 0.00 69 999.5
20240722192948 83 353 3.5 7.8 0.00 0.00 0.00 70 999.5
20240722192447 84 340 3.5 7.8 0.00 0.00 0.00 73 999.5
20240722191948 83 307 4.3 7.8 0.00 0.00 0.00 74 999.4
20240722191443 83 333 3.5 7.8 0.00 0.00 0.00 73 999.6
20240722190937 83 326 3.5 6.1 0.00 0.00 0.00 76 999.6
20240722190431 83 308 3.5 6.1 0.00 0.00 0.00 74 999.7
20240722190156 83 345 2.6 6.1 0.00 0.00 0.00 72 999.7
20240722185651 83 324 2.6 7.0 0.00 0.00 0.00 73 999.8
20240722185415 83 358 3.5 7.0 0.00 0.00 0.00 76 999.8
20240722184407 83 328 2.6 7.0 0.00 0.00 0.00 73 999.8
20240722183859 83 359 1.7 4.3 0.00 0.00 0.00 75 999.7
20240722183355 83 289 2.6 7.0 0.00 0.00 0.00 73 999.7
20240722182849 83 319 3.5 7.0 0.00 0.00 0.00 75 999.8
20240722182342 83 344 2.6 7.0 0.00 0.00 0.00 75 999.8
20240722181837 83 322 2.6 5.2 0.00 0.00 0.00 76 999.9
20240722181330 83 310 3.5 7.0 0.00 0.00 0.00 76 999.9
20240722180825 82 354 2.6 7.0 0.00 0.00 0.00 77 1000.0
20240722180319 82 293 2.6 6.1 0.00 0.00 0.00 76 999.9
20240722175813 82 346 2.6 6.1 0.00 0.00 0.00 77 1000.0
20240722175536 82 28 2.6 4.3 0.00 0.00 0.00 76 1000.1
20240722174800 82 8 2.6 4.3 0.00 0.00 0.00 77 1000.2
20240722174254 83 305 3.5 6.1 0.00 0.00 0.00 76 1000.2
20240722173748 83 304 2.6 7.0 0.00 0.00 0.00 73 1000.2
20240722173243 83 12 1.7 7.0 0.00 0.00 0.00 77 1000.0
20240722172736 83 325 1.7 5.2 0.00 0.00 0.00 73 1000.1
20240722172231 83 31 1.7 7.0 0.00 0.00 0.00 76 1000.2
20240722171725 83 310 2.6 7.0 0.00 0.00 0.00 74 1000.3
20240722171218 83 312 2.6 5.2 0.00 0.00 0.00 74 1000.3
20240722170712 82 84 3.5 6.1 0.00 0.00 0.00 75 1000.3
20240722170206 82 357 3.5 6.1 0.00 0.00 0.00 76 1000.3
20240722165701 82 292 2.6 6.1 0.00 0.00 0.00 76 1000.4
20240722165154 82 337 1.7 5.2 0.00 0.00 0.00 76 1000.4
20240722164647 82 187 2.6 5.2 0.00 0.00 0.00 76 1000.4
20240722164143 82 302 2.6 5.2 0.00 0.00 0.00 78 1000.4
20240722163636 82 302 0.9 4.3 0.00 0.00 0.00 79 1000.4
20240722163129 81 305 1.7 5.2 0.00 0.00 0.00 78 1000.4
20240722162624 81 324 2.6 5.2 0.00 0.00 0.00 77 1000.5
20240722162118 81 309 1.7 5.2 0.00 0.00 0.00 78 1000.5
20240722161843 80 320 1.7 4.3 0.00 0.00 0.00 78 1000.5
20240722161107 80 293 1.7 4.3 0.00 0.00 0.00 79 1000.5
20240722160601 79 32 1.7 4.3 0.00 0.00 0.00 81 1000.5
20240722160327 79 25 1.7 3.5 0.00 0.00 0.00 79 1000.5
20240722155558 79 335 1.7 4.3 0.00 0.00 0.00 80 1000.6
20240722155326 79 333 2.6 5.2 0.00 0.00 0.00 81 1000.7
20240722154557 79 321 1.7 5.2 0.00 0.00 0.00 80 1000.6
20240722154055 79 48 1.7 3.5 0.00 0.00 0.00 81 1000.6
20240722153555 79 23 1.7 3.5 0.00 0.00 0.00 80 1000.4
20240722153326 79 309 1.7 3.5 0.00 0.00 0.00 81 1000.4
20240722152552 79 331 1.7 3.5 0.00 0.00 0.00 80 1000.4
20240722152102 79 117 0.9 2.6 0.00 0.00 0.00 80 1000.3
20240722152054 79 34 0.9 2.6 0.00 0.00 0.00 80 1000.3
20240722151052 79 124 0.9 3.5 0.00 0.00 0.00 83 1000.3
20240722150552 78 89 1.7 3.5 0.00 0.00 0.00 82 1000.3
20240722150049 78 90 0.9 3.5 0.00 0.00 0.00 82 1000.3
20240722145550 77 77 1.7 4.3 0.00 0.00 0.00 83 1000.2
20240722145050 77 20 1.7 4.3 0.00 0.00 0.00 83 1000.2
20240722144551 77 54 0.9 3.5 0.00 0.00 0.00 85 1000.2
20240722144316 76 89 0.9 3.5 0.00 0.00 0.00 85 1000.2
20240722143537 75 35 0.9 3.5 0.00 0.00 0.00 87 1000.2
20240722143035 75 34 1.7 3.5 0.00 0.00 0.00 87 1000.2
20240722142536 74 17 1.7 3.5 0.00 0.00 0.00 87 1000.3
20240722142032 74 25 1.7 4.3 0.00 0.00 0.00 87 1000.2
20240722141807 74 37 2.6 6.1 0.00 0.00 0.00 88 1000.2
20240722141033 74 337 1.7 6.1 0.00 0.00 0.00 87 1000.3
20240722140535 74 14 0.9 3.5 0.00 0.00 0.00 89 1000.2
20240722140040 74 30 0.9 4.3 0.00 0.00 0.00 90 1000.2
20240722135531 73 356 1.7 4.3 0.00 0.00 0.00 89 1000.2
20240722135309 72 357 0.9 3.5 0.00 0.00 0.00 90 1000.3
20240722135030 73 350 1.7 3.5 0.00 0.00 0.00 91 1000.2
20240722134303 72 340 0.9 3.5 0.00 0.00 0.00 91 1000.2
20240722133533 72 359 1.7 3.5 0.00 0.00 0.00 91 1000.2
20240722133031 71 13 1.7 3.5 0.00 0.00 0.00 92 1000.2
20240722132803 71 353 0.9 2.6 0.00 0.00 0.00 92 1000.1
20240722132031 71 43 0.9 2.6 0.00 0.00 0.00 93 1000.1
20240722131811 71 11 0.0 1.7 0.00 0.00 0.00 93 1000.2
20240722131533 71 5 0.0 1.7 0.00 0.00 0.00 93 1000.1
20240722130533 70 354 0.0 1.7 0.00 0.00 0.00 94 1000.2
20240722130030 70 6 0.0 0.9 0.00 0.00 0.00 94 1000.1
20240722125532 70 41 0.0 0.9 0.00 0.00 0.00 95 1000.0
20240722125301 70 335 0.0 1.7 0.00 0.00 0.00 94 999.9
20240722124532 70 333 0.0 1.7 0.00 0.00 0.00 95 999.9
20240722124032 69 303 0.0 1.7 0.00 0.00 0.00 95 999.9
20240722123533 69 311 0.0 2.6 0.00 0.00 0.00 95 999.9
20240722123032 69 326 0.9 2.6 0.00 0.00 0.00 95 999.7
20240722122533 69 336 0.9 2.6 0.00 0.00 0.00 96 999.6
20240722122032 69 345 0.0 1.7 0.00 0.00 0.00 96 999.4
20240722121532 69 359 0.0 0.9 0.00 0.00 0.00 96 999.3
20240722121026 69 15 0.0 0.9 0.00 0.00 0.00 96 999.3
20240722120527 69 341 0.0 0.0 0.00 0.00 0.00 96 999.2
20240722120024 69 330 0.0 0.9 0.00 0.00 0.00 97 999.2
20240722115521 68 330 0.0 0.9 0.00 0.00 0.00 96 999.1
20240722115019 68 330 0.0 0.9 0.00 0.00 0.00 97 999.2
20240722114752 68 0 0.0 0.0 0.00 0.00 0.00 97 999.3
20240722114249 68 0 0.0 0.0 0.00 0.00 0.00 97 999.3
20240722113516 68 0 0.0 0.0 0.00 0.00 0.00 97 999.2
20240722113018 68 358 0.0 0.0 0.00 0.00 0.00 97 999.2
20240722112515 68 358 0.0 0.0 0.00 0.00 0.00 96 999.3
20240722112013 68 358 0.0 0.0 0.00 0.00 0.00 96 999.2
20240722111741 68 358 0.0 0.0 0.00 0.00 0.00 96 999.3
20240722111010 68 358 0.0 0.0 0.00 0.00 0.00 96 999.3
20240722110508 68 358 0.0 0.0 0.00 0.00 0.00 96 999.3
20240722110241 68 358 0.0 0.0 0.00 0.00 0.00 96 999.2
20240722105506 68 358 0.0 0.0 0.00 0.00 0.00 96 999.1
20240722105008 68 358 0.0 0.0 0.00 0.00 0.00 96 999.1
20240722104502 68 358 0.0 0.0 0.00 0.00 0.00 96 999.2
20240722103956 68 358 0.0 0.0 0.00 0.00 0.00 96 999.2
20240722103449 68 358 0.0 0.0 0.00 0.00 0.00 96 999.2
20240722102943 68 358 0.0 0.9 0.00 0.00 0.00 96 999.2
20240722102437 68 4 0.0 1.7 0.00 0.00 0.00 96 999.1
20240722101931 68 29 0.9 1.7 0.00 0.00 0.00 96 999.1
20240722101426 68 340 0.9 1.7 0.00 0.00 0.00 96 999.1
20240722100920 68 336 0.0 1.7 0.00 0.00 0.00 96 999.1
20240722100414 68 40 0.0 0.0 0.00 0.00 0.00 96 999.0
20240722095907 68 64 0.0 0.0 0.00 0.00 0.00 96 998.9
20240722095402 68 63 0.0 0.0 0.00 0.00 0.00 96 999.0
20240722094856 68 63 0.0 0.0 0.00 0.00 0.00 96 998.9
20240722094350 68 64 0.0 0.0 0.00 0.00 0.00 96 998.9
20240722093844 68 64 0.0 0.9 0.00 0.00 0.00 96 998.7
20240722093338 68 44 0.0 0.9 0.00 0.00 0.00 96 998.7
20240722093103 68 323 0.0 0.0 0.00 0.00 0.00 96 998.8
20240722092326 68 323 0.0 0.0 0.00 0.00 0.00 96 998.9
20240722092051 68 323 0.0 0.9 0.00 0.00 0.00 96 999.0
20240722091319 69 323 0.0 1.7 0.00 0.00 0.00 96 998.9
20240722090818 69 321 0.0 1.7 0.00 0.00 0.00 96 998.9
20240722090315 69 325 0.0 1.7 0.00 0.00 0.00 96 998.8
20240722085813 68 339 0.0 0.9 0.00 0.00 0.00 96 998.8
20240722085549 69 295 0.0 0.9 0.00 0.00 0.00 95 998.9
20240722085312 69 297 0.0 0.9 0.00 0.00 0.00 95 998.8
20240722084312 69 348 0.0 0.0 0.00 0.00 0.00 95 998.8
20240722083813 69 348 0.0 0.0 0.00 0.00 0.00 95 998.9
20240722083312 69 348 0.0 0.0 0.00 0.00 0.00 94 998.9
20240722082810 69 348 0.0 0.0 0.00 0.00 0.00 94 998.9
20240722082307 69 348 0.0 0.0 0.00 0.00 0.00 94 998.9
20240722081806 69 348 0.0 0.0 0.00 0.00 0.00 94 998.9
20240722081311 70 348 0.0 0.0 0.00 0.00 0.00 94 999.0
20240722081303 70 348 0.0 0.0 0.00 0.00 0.00 94 999.0
20240722080301 70 348 0.0 0.0 0.00 0.00 0.00 94 999.1
20240722075801 70 348 0.0 0.0 0.00 0.00 0.00 94 999.1
20240722075259 70 348 0.0 0.0 0.00 0.00 0.00 94 999.2
20240722074756 70 348 0.0 0.0 0.00 0.00 0.00 94 999.1
20240722074257 70 348 0.0 0.0 0.00 0.00 0.00 94 999.1
20240722074028 70 348 0.0 1.7 0.00 0.00 0.00 94 999.2
20240722073251 70 348 0.0 1.7 0.00 0.00 0.00 94 999.2
20240722072751 70 23 0.0 0.0 0.00 0.00 0.00 94 999.3
20240722072251 70 23 0.0 0.0 0.00 0.00 0.00 94 999.3
20240722071750 70 45 0.0 0.0 0.00 0.00 0.00 94 999.3
20240722071249 70 45 0.0 0.0 0.00 0.00 0.00 94 999.4
20240722070747 70 46 0.0 0.0 0.00 0.00 0.00 94 999.4
20240722070245 71 46 0.0 0.0 0.00 0.00 0.00 94 999.4
20240722065742 71 46 0.0 0.0 0.00 0.00 0.00 94 999.5
20240722065241 71 46 0.0 0.0 0.00 0.00 0.00 93 999.5
20240722064740 71 46 0.0 0.0 0.00 0.00 0.00 93 999.6
20240722064238 71 46 0.0 0.0 0.00 0.00 0.00 93 999.6
20240722063736 71 46 0.0 0.0 0.00 0.00 0.00 93 999.7
20240722063234 71 46 0.0 0.0 0.00 0.00 0.00 93 999.6
20240722063005 71 46 0.0 0.9 0.00 0.00 0.00 93 999.8
20240722062234 71 46 0.0 1.7 0.00 0.00 0.00 93 999.7
20240722062005 71 58 0.0 1.7 0.00 0.00 0.00 93 999.9